Location: Oregon Trail
(41.1872°N, 102.0741°W)
Time: 02:52:54
(UTC+00:00)

Timation 2 Rocket - Pass Details

Date: 19 November 2019
Orbit: 907 x 1074 km, 70.0° (Epoch: 11 December)

Event Time Altitude Azimuth Distance (km) Brightness Sun altitude
Rises 13:07:14 0° 208° (SSW) 3,583 6.9 -6.7°
Reaches altitude 10° 13:09:46 10° 210° (SSW) 2,624 6.2 -6.2°
Maximum altitude 13:15:49 75° 296° (WNW) 946 3.9 -5.1°
Drops below altitude 10° 13:21:48 10° 22° (NNE) 2,597 6.3 -4.1°
Sets 13:24:19 0° 24° (NNE) 3,544 7.0 -3.7°
